Location: 22
(39.7117°N, 89.5929°W)
Time: 08:19:17
(UTC-05:00)

Transit 2A - Pass Details

Date: 08 August 2024
Orbit: 590 x 961 km, 66.7° (Epoch: 13 September)

Event Time Altitude Azimuth Distance (km) Brightness Sun altitude
Rises 11:50:40 0° 340° (NNW) 3,635 9.2 61.3°
Reaches altitude 10° 11:54:07 10° 358° (N) 2,701 8.7 61.7°
Maximum altitude 11:58:26 19° 41° (NE) 2,134 8.5 62.2°
Drops below altitude 10° 12:02:41 10° 84° (E) 2,664 9.1 62.7°
Sets 12:06:02 0° 102° (ESE) 3,566 9.7 63.0°
